Wind_Speed
18 18 17 17 16 17 21 26 27 24 23 24 24 23 18 14 12 8 8 11 8 10 9 9 6 6 7 6 9 9 8 7 4 4 3 5 4 3 4 4 5 6 8 9 9 10 10 12 14
18 18 18 18 18 20 26 28 29 29 28 24 21 22 23 19 14 13 13 13 15 15 13 11 10 8 7 8 10 9 8 7 6 5 4 4 5 4 4 5 5 6 8 10 10 11 11 14 16
17 17 17 17 18 23 28 29 32 31 29 27 25 23 24 24 20 17 20 17 17 17 15 13 12 11 9 8 7 8 8 9 7 9 8 8 7 5 5 6 7 6 8 10 11 12 13 14 14
13 14 14 15 19 23 27 28 32 32 33 31 29 28 28 28 26 23 23 24 27 24 20 19 16 15 13 12 9 11 10 11 12 13 12 10 11 8 8 9 8 9 9 11 12 13 14 15 15
13 14 16 16 21 25 27 28 30 31 32 33 33 31 32 34 35 32 28 27 28 29 25 24 22 20 18 15 15 15 14 12 13 14 14 13 13 12 12 12 12 12 12 12 14 14 14 14 14
15 15 18 20 24 28 29 31 31 32 33 33 34 33 33 33 34 34 32 30 27 25 27 26 28 26 24 21 18 18 17 15 15 15 13 14 14 15 15 15 15 15 15 15 15 15 15 16 15
16 18 18 22 27 31 33 34 35 36 37 39 41 42 39 38 38 39 37 37 34 30 28 30 32 32 30 28 24 22 20 20 19 17 17 16 16 18 18 17 18 18 18 17 17 16 18 17 16
22 22 22 24 26 30 31 31 32 33 34 36 39 43 44 44 44 45 45 43 42 40 39 36 36 35 36 34 32 30 28 24 22 23 21 19 18 18 19 20 20 20 20 20 20 20 20 20 19
28 26 27 29 29 30 32 34 35 37 36 38 39 39 41 43 42 44 45 45 44 42 40 37 37 40 41 40 38 37 35 31 27 26 25 24 23 21 20 21 21 21 22 22 22 23 23 22 21
30 29 29 29 32 33 37 38 39 41 41 42 42 44 45 45 46 47 48 49 48 48 45 43 41 41 42 44 45 43 42 39 35 31 30 29 28 25 22 22 23 22 23 24 24 24 25 24 23
23 27 30 32 34 33 34 35 37 37 39 43 41 46 48 49 50 51 53 53 55 55 53 51 44 44 44 43 47 48 46 45 43 40 36 33 32 30 28 26 26 25 26 25 24 26 26 26 25
17 21 24 27 30 28 26 31 33 34 35 41 44 42 43 45 48 52 55 56 57 60 59 58 54 48 48 46 45 48 50 48 47 47 43 39 37 34 34 33 31 29 29 28 27 28 27 27 26
15 18 21 23 23 25 25 25 25 30 31 31 33 31 31 34 37 44 51 55 60 60 62 64 63 57 54 53 49 49 50 52 50 48 48 46 42 40 38 37 36 34 32 31 30 29 28 27 27
13 17 21 24 26 27 21 23 27 26 26 28 33 35 38 38 39 38 42 47 56 61 65 64 66 67 61 59 56 51 51 52 53 50 49 50 49 46 44 42 40 38 36 35 33 32 31 30 30
16 18 20 22 24 26 24 22 30 29 32 32 34 35 39 42 45 48 49 47 52 59 66 66 68 69 69 66 64 60 53 51 53 55 52 53 51 51 49 47 44 43 40 39 37 35 35 34 31
19 20 22 26 27 31 31 24 34 36 39 36 35 38 41 39 42 47 50 53 54 58 63 66 70 72 73 73 70 67 63 59 55 56 56 57 54 52 53 50 48 48 46 43 41 39 37 36 34
22 24 26 27 29 33 35 34 36 39 40 37 38 37 36 36 40 44 45 48 52 56 62 65 69 74 77 75 75 71 65 65 61 58 56 58 57 55 54 52 50 50 49 47 45 43 41 40 43
26 26 25 27 30 36 35 38 37 37 41 40 39 39 36 37 41 42 43 47 46 47 50 59 59 69 75 74 75 72 70 66 66 64 62 58 58 59 56 54 54 55 55 52 50 48 46 45 45
30 32 32 32 34 38 36 39 40 38 41 41 42 40 38 38 38 41 42 46 39 37 46 49 50 49 63 68 70 70 67 66 67 67 65 64 60 58 59 58 54 57 55 54 53 53 52 52 50
33 36 37 37 38 40 38 36 40 39 40 43 43 42 40 38 37 37 38 36 36 38 35 37 41 44 48 57 62 69 58 59 60 63 67 67 66 63 59 59 57 55 57 57 55 56 54 55 53
35 40 41 43 40 39 43 41 41 39 38 40 43 45 43 42 37 37 37 32 33 36 35 32 33 36 38 45 47 57 55 47 54 57 61 67 67 65 63 59 56 57 51 55 57 56 57 57 55
37 40 44 45 46 45 42 48 43 44 40 37 42 43 43 44 42 39 39 33 36 34 32 31 32 26 33 41 27 37 46 51 51 54 56 58 65 65 64 61 57 58 58 45 56 52 53 60 64
42 43 46 47 48 49 46 45 47 48 39 39 42 43 42 44 44 38 39 35 37 34 31 27 17 21 27 27 18 26 35 46 53 51 47 53 57 60 62 61 60 57 58 56 59 47 46 46 44
44 47 49 49 49 50 50 49 48 46 48 43 41 43 45 44 46 43 38 34 33 36 31 30 17 17 20 28 28 27 25 32 44 49 51 51 54 56 58 62 61 60 59 56 54 54 53 57 46
47 48 50 50 49 49 49 51 45 45 45 48 48 46 45 46 46 44 38 34 32 27 28 30 22 18 25 30 26 27 24 27 33 36 37 43 53 55 57 58 60 61 61 59 55 54 51 49 43
46 46 47 48 49 50 48 50 49 46 47 49 52 50 50 48 41 41 34 26 26 21 29 27 23 21 19 18 19 20 23 26 28 32 32 35 40 45 51 55 56 59 61 61 60 57 55 53 49
43 42 45 48 48 49 50 50 47 51 53 49 47 48 44 39 38 36 31 28 29 28 30 27 23 21 20 20 20 22 25 26 27 29 31 31 33 36 37 42 47 54 58 60 58 55 53 50 48
46 49 49 48 52 52 50 53 52 49 49 47 42 40 39 35 36 31 32 34 33 29 28 27 24 19 18 18 20 23 24 26 27 30 31 29 27 26 28 31 35 42 50 56 55 54 49 50 45
48 50 51 52 52 56 58 56 49 41 40 39 39 39 38 38 39 33 33 34 29 36 35 31 31 27 25 20 18 19 21 23 27 30 30 30 31 28 25 28 29 29 35 40 43 43 43 44 46
51 50 49 53 53 54 54 51 41 37 39 35 29 32 34 35 35 40 36 34 41 29 45 36 33 26 27 26 22 22 22 22 25 25 26 31 28 27 27 24 26 28 27 33 29 36 40 44 38
Wind_Direction
216 215 215 207 205 204 219 222 225 224 228 238 251 251 241 218 227 265 274 288 272 293 295 304 293 273 272 249 254 269 279 287 293 308 320 315 310 309 315 319 313 306 296 294 296 302 307 319 325
225 226 223 221 214 216 225 227 229 234 235 239 250 264 271 264 257 260 263 267 282 284 284 291 289 281 278 260 249 260 285 282 289 291 304 292 294 293 299 305 307 303 299 298 300 303 311 314 325
227 228 224 223 221 219 228 232 238 240 239 240 244 253 264 284 283 281 270 261 263 274 276 275 276 284 279 284 256 243 271 274 274 293 295 291 276 273 277 282 291 291 295 294 297 299 301 305 315
226 229 226 228 229 223 230 232 241 246 249 247 247 251 260 263 269 279 290 285 286 284 282 279 277 277 279 272 268 268 272 273 271 274 271 280 276 262 266 276 278 285 287 289 289 291 299 303 313
225 238 238 238 244 239 236 239 244 247 253 255 256 254 256 261 264 271 278 284 286 283 279 279 276 274 272 267 268 274 275 282 276 269 261 267 265 270 266 270 272 273 277 281 284 288 293 299 302
247 248 244 243 245 249 249 247 248 250 257 262 265 264 267 270 274 276 279 277 276 269 270 274 277 277 275 273 270 274 282 280 275 269 263 264 266 266 266 266 266 267 271 275 280 279 284 287 293
265 268 254 247 246 250 254 255 255 253 253 256 263 265 264 263 265 268 267 267 267 259 256 264 268 271 271 270 268 268 268 274 276 273 264 258 260 262 262 263 264 265 268 269 269 275 280 282 284
272 270 259 252 251 250 255 261 264 265 261 258 258 261 265 266 269 270 270 269 267 265 264 257 258 260 262 263 267 268 268 264 269 270 266 262 257 257 261 265 265 267 268 270 270 270 274 277 277
265 259 254 254 254 256 257 257 257 259 259 259 260 260 263 264 263 264 266 268 268 266 264 260 259 257 258 262 264 266 266 265 263 265 266 264 262 259 257 262 265 267 267 267 269 271 273 275 277
252 258 259 254 254 252 256 257 259 262 264 264 265 266 266 264 263 262 260 259 260 263 261 259 259 258 258 259 261 262 263 263 261 260 262 261 261 259 257 259 261 263 265 267 268 271 274 274 276
262 263 264 265 266 263 263 266 266 266 270 269 268 269 268 271 272 271 269 265 266 263 260 259 257 257 257 255 259 260 261 262 261 258 256 257 257 257 255 255 258 261 264 266 268 270 270 272 275
278 274 273 272 272 278 275 265 264 264 262 265 270 273 274 274 274 275 274 270 266 265 264 262 259 255 255 254 252 255 257 257 258 258 254 253 255 254 254 254 255 257 259 264 266 266 269 272 275
286 284 281 279 279 273 270 269 267 266 268 271 273 278 277 278 280 281 279 279 279 272 269 266 262 257 253 254 253 252 251 252 254 255 253 252 249 250 250 250 252 254 255 259 261 264 266 269 271
296 281 277 276 279 279 280 275 265 264 270 275 277 280 281 277 276 280 283 279 277 276 275 270 268 265 257 252 250 249 251 250 250 251 252 251 249 248 249 248 249 250 252 255 260 263 264 265 268
297 288 279 273 268 265 267 269 272 265 267 273 279 282 281 283 281 277 273 276 274 271 273 271 269 266 264 258 251 245 244 248 249 248 249 251 249 248 248 249 248 249 251 254 256 259 261 263 265
311 305 296 289 281 275 268 258 266 269 269 275 281 282 288 287 285 281 278 276 272 268 267 268 269 266 264 263 257 251 245 243 244 247 245 247 249 247 248 247 248 248 249 251 253 255 254 258 260
318 312 306 297 287 279 278 274 265 270 274 278 279 284 283 282 286 289 289 282 274 272 261 259 261 262 262 261 258 253 245 246 243 245 246 246 247 247 246 246 247 249 250 250 251 254 251 254 260
313 313 312 302 289 284 281 279 279 285 288 290 291 293 293 296 294 297 300 302 291 279 271 264 261 261 257 259 260 257 251 242 242 241 244 245 244 244 246 245 244 247 250 249 249 250 252 255 261
308 309 307 302 297 294 289 288 288 292 292 291 293 294 298 303 305 310 306 308 306 292 277 269 258 258 257 256 258 258 255 247 241 241 240 243 245 245 243 245 244 245 249 252 252 252 254 257 260
304 304 304 302 299 298 297 292 289 294 291 292 294 294 296 296 306 311 305 305 301 298 286 275 259 257 255 249 253 259 256 251 246 242 237 238 241 245 245 245 246 248 249 251 253 256 258 259 259
302 302 302 301 297 294 295 296 290 287 287 290 292 294 296 297 304 307 301 291 295 302 296 287 272 251 258 258 261 259 256 252 251 245 238 236 236 240 245 246 247 246 244 251 255 257 261 260 259
298 297 298 298 297 296 294 294 296 291 295 292 287 290 293 295 301 305 305 282 288 295 295 285 268 248 255 248 274 267 257 249 246 249 246 241 240 238 242 244 245 247 249 256 252 258 262 268 260
296 298 297 297 296 296 295 293 293 296 299 290 287 289 288 292 295 295 296 282 280 280 288 285 267 248 248 233 240 249 264 247 249 248 249 247 246 244 239 241 245 247 247 243 250 255 265 270 275
296 298 298 298 296 296 296 295 291 293 293 292 290 289 289 289 296 293 288 282 284 268 272 271 258 248 243 246 242 254 257 252 252 253 250 248 248 247 246 242 241 243 246 250 252 255 257 262 273
301 300 298 295 295 295 296 294 298 296 297 297 296 293 290 291 295 288 281 274 278 276 247 258 256 248 237 255 250 262 262 251 251 253 252 250 248 250 252 250 245 242 242 246 249 250 254 259 264
304 303 301 298 297 295 296 296 298 299 298 297 296 295 294 292 286 282 278 271 249 250 242 245 246 242 243 253 253 254 253 254 253 252 251 251 250 252 255 256 251 247 244 244 246 247 249 256 264
305 301 298 296 295 293 295 296 296 300 299 299 294 291 288 285 277 269 268 253 258 248 241 244 246 245 242 246 254 257 256 256 258 261 266 266 264 261 260 259 259 253 249 246 245 248 248 253 259
306 304 302 301 300 299 296 294 301 302 303 297 292 288 284 272 262 268 262 246 245 243 233 235 236 246 253 257 263 267 269 270 270 270 269 271 272 275 267 262 260 260 255 254 250 247 247 249 253
304 302 301 300 302 303 300 299 306 303 297 292 292 295 293 286 266 264 262 257 251 240 228 238 239 231 236 242 255 258 261 268 273 271 270 270 272 271 268 265 263 265 261 255 254 252 247 249 250
302 300 300 300 300 298 301 302 306 303 292 292 292 291 288 288 279 265 256 262 267 223 239 232 233 230 240 243 257 267 270 278 280 280 273 268 268 269 269 277 267 260 264 259 247 242 242 244 252
Height
5876 5879 5881 5883 5888 5886 5882 5881 5884 5886 5888 5889 5890 5893 5894 5893 5895 5898 5896 5897 5898 5899 5900 5901 5902 5903 5904 5905 5904 5904 5905 5905 5905 5907 5906 5907 5907 5906 5907 5907 5908 5909 5909 5909 5910 5910 5910 5910 5910
5875 5877 5880 5881 5884 5882 5879 5881 5882 5884 5887 5889 5891 5891 5892 5893 5893 5893 5894 5894 5895 5896 5897 5898 5900 5901 5902 5902 5903 5903 5903 5903 5903 5904 5905 5906 5906 5905 5905 5906 5906 5907 5908 5908 5909 5909 5909 5909 5909
5872 5875 5878 5879 5880 5878 5877 5879 5880 5880 5885 5888 5889 5889 5890 5891 5891 5893 5892 5892 5891 5893 5894 5895 5897 5898 5900 5901 5902 5902 5902 5902 5901 5902 5903 5903 5904 5904 5903 5904 5905 5905 5906 5907 5907 5907 5907 5907 5906
5870 5873 5876 5877 5876 5876 5876 5877 5878 5878 5881 5884 5886 5887 5888 5887 5887 5888 5890 5892 5892 5892 5892 5893 5893 5895 5896 5898 5899 5900 5900 5900 5900 5900 5900 5901 5901 5901 5901 5902 5902 5903 5904 5905 5905 5905 5905 5904 5904
5868 5870 5872 5875 5873 5872 5873 5874 5875 5877 5877 5878 5880 5883 5885 5884 5885 5888 5890 5891 5891 5891 5891 5891 5891 5891 5892 5893 5894 5896 5898 5897 5897 5897 5897 5898 5898 5898 5899 5900 5900 5901 5901 5902 5902 5902 5902 5902 5901
5866 5867 5869 5870 5871 5869 5870 5871 5872 5874 5875 5875 5876 5878 5880 5881 5881 5884 5886 5888 5888 5889 5888 5889 5889 5889 5890 5890 5891 5892 5894 5894 5894 5894 5893 5894 5895 5895 5896 5896 5897 5898 5898 5899 5899 5899 5898 5899 5898
5862 5863 5864 5867 5866 5865 5865 5866 5867 5870 5871 5870 5870 5870 5873 5875 5875 5874 5877 5879 5883 5884 5885 5884 5884 5884 5885 5886 5887 5888 5889 5890 5891 5891 5891 5890 5891 5892 5892 5892 5893 5894 5894 5895 5895 5894 5894 5895 5894
5859 5861 5861 5862 5862 5860 5861 5861 5862 5862 5863 5864 5863 5863 5864 5867 5867 5868 5869 5873 5875 5877 5880 5880 5879 5878 5878 5879 5880 5882 5883 5884 5885 5887 5887 5887 5886 5887 5888 5888 5889 5890 5890 5890 5891 5890 5890 5890 5890
5854 5856 5856 5856 5857 5857 5856 5854 5855 5854 5855 5854 5855 5857 5857 5857 5861 5861 5861 5862 5865 5867 5870 5871 5873 5873 5873 5873 5874 5875 5877 5878 5879 5881 5883 5883 5882 5882 5883 5883 5884 5884 5885 5885 5886 5886 5886 5885 5886
5850 5850 5850 5850 5849 5850 5849 5849 5849 5849 5849 5849 5850 5849 5849 5849 5851 5852 5853 5853 5855 5857 5859 5862 5865 5866 5867 5868 5867 5868 5870 5871 5872 5874 5876 5878 5878 5878 5878 5878 5879 5879 5880 5880 5881 5881 5881 5881 5881
5844 5844 5844 5844 5844 5845 5845 5844 5844 5844 5842 5841 5842 5840 5840 5840 5841 5842 5844 5847 5845 5847 5850 5850 5854 5856 5857 5859 5860 5861 5862 5863 5864 5866 5868 5870 5872 5873 5873 5873 5873 5873 5874 5875 5876 5877 5875 5875 5876
5839 5838 5838 5837 5836 5838 5838 5836 5836 5835 5835 5833 5833 5835 5834 5833 5831 5830 5829 5832 5835 5835 5837 5840 5844 5847 5847 5849 5850 5851 5852 5853 5855 5857 5860 5863 5864 5865 5866 5866 5866 5867 5868 5869 5870 5870 5870 5870 5871
5835 5834 5833 5832 5833 5832 5833 5833 5831 5828 5828 5827 5826 5826 5826 5825 5824 5822 5819 5817 5815 5819 5823 5825 5827 5833 5837 5839 5841 5840 5842 5843 5845 5847 5850 5853 5855 5856 5857 5859 5860 5861 5862 5862 5863 5864 5865 5864 5865
5831 5830 5829 5828 5826 5825 5826 5825 5822 5823 5823 5821 5819 5818 5817 5817 5815 5815 5813 5811 5807 5804 5803 5807 5811 5813 5820 5825 5828 5831 5832 5833 5833 5836 5839 5842 5845 5847 5849 5850 5852 5853 5854 5855 5857 5858 5858 5857 5859
5827 5826 5825 5824 5822 5821 5821 5820 5816 5816 5815 5815 5816 5813 5809 5805 5804 5803 5801 5799 5798 5796 5791 5791 5793 5796 5800 5806 5812 5816 5820 5821 5823 5824 5826 5829 5833 5836 5839 5841 5843 5845 5847 5848 5849 5850 5851 5851 5853
5822 5821 5819 5817 5816 5813 5814 5818 5809 5806 5807 5808 5806 5803 5801 5799 5793 5790 5789 5786 5784 5782 5781 5779 5777 5779 5782 5787 5793 5800 5805 5809 5809 5810 5814 5817 5820 5825 5828 5831 5834 5835 5838 5840 5841 5842 5843 5844 5844
5817 5815 5813 5813 5810 5807 5805 5805 5803 5799 5798 5797 5796 5795 5793 5790 5786 5780 5775 5772 5770 5767 5765 5764 5763 5763 5763 5768 5773 5781 5789 5795 5799 5799 5801 5804 5809 5812 5815 5820 5824 5825 5828 5831 5832 5834 5835 5836 5836
5810 5809 5808 5805 5802 5798 5797 5792 5790 5788 5785 5783 5781 5778 5777 5775 5771 5769 5764 5758 5753 5752 5749 5748 5750 5749 5749 5750 5753 5761 5770 5777 5783 5787 5788 5791 5795 5800 5804 5808 5812 5813 5815 5819 5823 5824 5826 5828 5828
5804 5801 5799 5797 5793 5789 5789 5784 5779 5778 5774 5772 5769 5767 5764 5759 5756 5752 5748 5745 5741 5737 5733 5734 5735 5739 5738 5740 5738 5743 5750 5758 5763 5769 5774 5777 5782 5787 5791 5796 5800 5801 5805 5808 5812 5814 5817 5819 5819
5796 5793 5791 5789 5785 5780 5779 5778 5772 5770 5766 5761 5758 5756 5753 5749 5745 5741 5737 5734 5731 5727 5723 5719 5720 5723 5726 5728 5726 5726 5735 5741 5747 5752 5758 5762 5768 5773 5779 5783 5789 5792 5796 5798 5801 5803 5806 5809 5809
5789 5783 5781 5778 5777 5774 5768 5768 5765 5763 5757 5753 5748 5743 5740 5738 5736 5734 5729 5725 5723 5720 5715 5711 5710 5712 5715 5717 5716 5716 5722 5729 5733 5737 5740 5748 5755 5761 5766 5773 5778 5783 5784 5788 5791 5793 5796 5798 5798
5782 5777 5771 5768 5764 5762 5763 5754 5754 5748 5747 5745 5740 5735 5732 5728 5725 5722 5721 5717 5714 5712 5709 5706 5703 5704 5707 5708 5710 5711 5711 5716 5718 5722 5733 5739 5744 5750 5755 5761 5766 5770 5776 5778 5780 5784 5783 5783 5785
5772 5768 5763 5758 5754 5750 5750 5749 5743 5736 5736 5732 5730 5727 5723 5720 5716 5714 5711 5708 5707 5705 5703 5702 5698 5698 5701 5702 5704 5706 5703 5707 5708 5716 5726 5730 5733 5738 5743 5748 5753 5757 5762 5767 5770 5772 5773 5766 5776
5763 5758 5753 5748 5743 5741 5738 5735 5735 5729 5721 5721 5720 5717 5713 5710 5706 5703 5701 5700 5700 5698 5698 5698 5695 5696 5697 5697 5699 5698 5699 5700 5703 5709 5715 5719 5722 5725 5729 5734 5740 5744 5750 5754 5758 5763 5765 5767 5768
5755 5748 5741 5739 5735 5731 5726 5721 5723 5718 5713 5707 5705 5704 5702 5699 5695 5693 5692 5692 5691 5690 5690 5692 5692 5692 5693 5693 5693 5694 5693 5693 5696 5700 5703 5705 5709 5712 5716 5720 5725 5731 5736 5741 5745 5749 5753 5756 5758
5745 5739 5732 5726 5724 5720 5717 5711 5711 5707 5702 5697 5692 5690 5688 5686 5683 5681 5682 5682 5682 5683 5685 5685 5687 5687 5687 5687 5688 5688 5688 5690 5691 5693 5694 5696 5700 5703 5706 5710 5714 5718 5723 5727 5732 5738 5743 5748 5750
5735 5730 5724 5715 5713 5708 5707 5702 5699 5696 5688 5684 5680 5676 5674 5674 5673 5672 5673 5673 5674 5675 5678 5680 5683 5681 5681 5682 5683 5683 5684 5684 5685 5686 5688 5690 5694 5696 5699 5700 5701 5705 5709 5715 5722 5728 5734 5739 5740
5723 5717 5710 5704 5698 5693 5694 5690 5690 5683 5673 5669 5665 5663 5662 5662 5662 5662 5662 5662 5662 5666 5670 5674 5676 5676 5676 5677 5677 5678 5679 5679 5679 5680 5681 5683 5686 5688 5690 5691 5692 5694 5698 5703 5710 5716 5723 5727 5730
5714 5706 5699 5693 5687 5679 5674 5679 5678 5672 5662 5658 5655 5654 5652 5650 5650 5650 5651 5651 5649 5657 5661 5664 5667 5667 5669 5671 5673 5672 5673 5673 5673 5674 5674 5675 5677 5680 5681 5682 5684 5685 5687 5692 5698 5706 5712 5717 5719
5703 5697 5690 5681 5677 5668 5662 5663 5665 5659 5653 5650 5648 5645 5642 5640 5638 5638 5640 5642 5641 5645 5650 5655 5657 5660 5662 5665 5666 5666 5666 5667 5667 5668 5667 5668 5670 5672 5674 5675 5674 5676 5678 5682 5689 5695 5701 5706 5711